When you browse on this site, cookies collect data to enhance your experience and personalize the content and advertising you see.
Visit our Privacy Policy to learn more. By continuing to use the site, you agree to this use of cookies and data.
  • Em Portugal
  • Lista de países
  • Para 7 dias
  • Temperatura da água
  • Mapas de satélite
  • Mapa do tempo
  • Widgets de tempo
  • user-avatar
    Iniciar Sessão

    Previsão horária em Shkoder

    Hoje, 21 Janeiro, Segunda-feira

    Tempo Temperatura Precipitação Vento Pressão Humidade
    00:00 +5°C° 0 mm 2 m/s 739 mmHg 81%
    01:00 +4°C° 0 mm 2 m/s 739 mmHg 80%
    02:00 +4°C° 0 mm 2 m/s 739 mmHg 79%
    03:00 +4°C° 0 mm 2 m/s 739 mmHg 79%
    04:00 +4°C° 0 mm 2 m/s 739 mmHg 78%
    05:00 +4°C° 0 mm 2 m/s 739 mmHg 78%
    06:00 +4°C° 0 mm 2 m/s 739 mmHg 78%
    07:00 +3°C° 0 mm 3 m/s 739 mmHg 77%
    08:00 +4°C° 0 mm 3 m/s 739 mmHg 76%
    09:00 +6°C° 0 mm 2 m/s 739 mmHg 75%
    10:00 +8°C° 0 mm 2 m/s 739 mmHg 75%
    11:00 +8°C° 0 mm 2 m/s 739 mmHg 73%
    12:00 +9°C° 0 mm 2 m/s 739 mmHg 71%
    13:00 +10°C° 0 mm 2 m/s 739 mmHg 69%
    14:00 +9°C° 0 mm 2 m/s 739 mmHg 72%
    15:00 +8°C° 0 mm 2 m/s 739 mmHg 75%
    16:00 +8°C° 0 mm 2 m/s 738 mmHg 79%
    17:00 +7°C° 0 mm 2 m/s 738 mmHg 79%
    18:00 +5°C° 0 mm 3 m/s 738 mmHg 80%
    19:00 +4°C° 0 mm 3 m/s 738 mmHg 81%
    20:00 +4°C° 0.2 mm 3 m/s 738 mmHg 80%
    21:00 +4°C° 0.2 mm 3 m/s 738 mmHg 80%
    22:00 +4°C° 0.2 mm 3 m/s 738 mmHg 80%
    23:00 +4°C° 0.1 mm 3 m/s 738 mmHg 80%

    Amanhã, 22 Janeiro, Terça-feira

    Tempo Temperatura Precipitação Vento Pressão Humidade
    00:00 +4°C° 0.1 mm 3 m/s 738 mmHg 80%
    01:00 +4°C° 0.1 mm 3 m/s 737 mmHg 80%
    02:00 +4°C° 0.2 mm 3 m/s 737 mmHg 80%
    03:00 +4°C° 0.2 mm 3 m/s 736 mmHg 80%
    04:00 +4°C° 0.2 mm 3 m/s 736 mmHg 81%
    05:00 +4°C° 0.5 mm 3 m/s 736 mmHg 81%
    06:00 +4°C° 0.5 mm 3 m/s 735 mmHg 82%
    07:00 +4°C° 0.5 mm 3 m/s 735 mmHg 82%
    08:00 +5°C° 0.8 mm 3 m/s 735 mmHg 84%
    09:00 +6°C° 0.8 mm 2 m/s 735 mmHg 85%
    10:00 +6°C° 0.8 mm 2 m/s 734 mmHg 86%
    11:00 +6°C° 1.5 mm 2 m/s 734 mmHg 87%
    12:00 +6°C° 1.5 mm 2 m/s 733 mmHg 88%
    13:00 +6°C° 1.5 mm 2 m/s 732 mmHg 89%
    14:00 +6°C° 1.8 mm 2 m/s 732 mmHg 89%
    15:00 +6°C° 1.8 mm 2 m/s 731 mmHg 89%
    16:00 +6°C° 1.8 mm 2 m/s 731 mmHg 88%
    17:00 +6°C° 1.6 mm 2 m/s 731 mmHg 88%
    18:00 +6°C° 1.6 mm 2 m/s 730 mmHg 89%
    19:00 +6°C° 1.6 mm 2 m/s 730 mmHg 89%
    20:00 +6°C° 1.3 mm 2 m/s 730 mmHg 90%
    21:00 +7°C° 1.3 mm 2 m/s 730 mmHg 90%
    22:00 +7°C° 1.3 mm 2 m/s 730 mmHg 91%
    23:00 +7°C° 0.9 mm 2 m/s 730 mmHg 92%

    Depois de amanhã, 23 Janeiro, Quarta-feira

    Tempo Temperatura Precipitação Vento Pressão Humidade
    00:00 +7°C° 0.9 mm 2 m/s 730 mmHg 93%
    01:00 +7°C° 0.9 mm 2 m/s 730 mmHg 93%
    02:00 +6°C° 1 mm 2 m/s 730 mmHg 93%
    03:00 +5°C° 1 mm 3 m/s 730 mmHg 93%
    04:00 +5°C° 1 mm 3 m/s 729 mmHg 93%
    05:00 +5°C° 1 mm 3 m/s 729 mmHg 93%
    06:00 +4°C° 1 mm 3 m/s 729 mmHg 92%
    07:00 +4°C° 1 mm 3 m/s 729 mmHg 92%
    08:00 +5°C° 0.8 mm 3 m/s 729 mmHg 89%
    09:00 +7°C° 0.8 mm 3 m/s 729 mmHg 86%
    10:00 +7°C° 0.8 mm 3 m/s 729 mmHg 83%
    11:00 +7°C° 0.7 mm 4 m/s 729 mmHg 82%
    12:00 +7°C° 0.7 mm 4 m/s 728 mmHg 81%
    13:00 +7°C° 0.7 mm 4 m/s 728 mmHg 81%
    14:00 +8°C° 0.5 mm 3 m/s 728 mmHg 81%
    15:00 +7°C° 0.5 mm 2 m/s 728 mmHg 82%
    16:00 +8°C° 0.5 mm 1 m/s 727 mmHg 83%
    17:00 +7°C° 0 mm 1 m/s 727 mmHg 84%
    18:00 +7°C° 0 mm 1 m/s 728 mmHg 84%
    19:00 +5°C° 0 mm 2 m/s 728 mmHg 85%
    20:00 +5°C° 0 mm 2 m/s 728 mmHg 83%
    21:00 +5°C° 0 mm 2 m/s 728 mmHg 81%
    22:00 +3°C° 0 mm 3 m/s 728 mmHg 79%
    23:00 +3°C° 0 mm 3 m/s 727 mmHg 78%

    24 Janeiro, Quinta-feira

    Tempo Temperatura Precipitação Vento Pressão Humidade
    00:00 +3°C° 0 mm 3 m/s 727 mmHg 77%
    01:00 +4°C° 0 mm 3 m/s 726 mmHg 76%
    02:00 +4°C° 0 mm 3 m/s 726 mmHg 76%
    03:00 +4°C° 0 mm 3 m/s 725 mmHg 76%
    04:00 +4°C° 0 mm 3 m/s 725 mmHg 76%
    05:00 +3°C° 0 mm 3 m/s 725 mmHg 76%
    06:00 +3°C° 0 mm 3 m/s 725 mmHg 76%
    07:00 +3°C° 0 mm 3 m/s 725 mmHg 75%
    08:00 +4°C° 0 mm 3 m/s 725 mmHg 74%
    09:00 +5°C° 0 mm 4 m/s 725 mmHg 74%
    10:00 +6°C° 0 mm 4 m/s 725 mmHg 73%
    11:00 +7°C° 0.1 mm 4 m/s 725 mmHg 73%
    12:00 +7°C° 0.1 mm 4 m/s 725 mmHg 73%
    13:00 +7°C° 0.1 mm 4 m/s 725 mmHg 73%
    14:00 +8°C° 0.2 mm 3 m/s 725 mmHg 74%
    15:00 +7°C° 0.2 mm 3 m/s 725 mmHg 76%
    16:00 +7°C° 0.2 mm 2 m/s 725 mmHg 78%
    17:00 +6°C° 0.1 mm 2 m/s 726 mmHg 78%
    18:00 +5°C° 0.1 mm 3 m/s 726 mmHg 78%
    19:00 +4°C° 0.1 mm 3 m/s 727 mmHg 79%
    20:00 +4°C° 0.1 mm 3 m/s 727 mmHg 78%
    21:00 +4°C° 0.1 mm 3 m/s 728 mmHg 78%
    22:00 +4°C° 0.1 mm 3 m/s 728 mmHg 78%
    23:00 +4°C° 0 mm 4 m/s 728 mmHg 77%

    25 Janeiro, Sexta-feira

    Tempo Temperatura Precipitação Vento Pressão Humidade
    00:00 +3°C° 0 mm 4 m/s 728 mmHg 77%
    01:00 +3°C° 0 mm 4 m/s 728 mmHg 76%
    02:00 +2°C° 0 mm 5 m/s 728 mmHg 75%
    03:00 +2°C° 0 mm 5 m/s 728 mmHg 73%
    04:00 +2°C° 0 mm 5 m/s 728 mmHg 72%
    05:00 +2°C° 0 mm 5 m/s 728 mmHg 71%
    06:00 +1°C° 0 mm 5 m/s 728 mmHg 71%
    07:00 +1°C° 0 mm 5 m/s 729 mmHg 70%
    08:00 +2°C° 0.1 mm 6 m/s 729 mmHg 70%
    09:00 +2°C° 0.1 mm 6 m/s 729 mmHg 69%
    10:00 +3°C° 0.1 mm 6 m/s 729 mmHg 69%
    11:00 +3°C° 0 mm 6 m/s 729 mmHg 68%
    12:00 +5°C° 0 mm 5 m/s 729 mmHg 67%
    13:00 +5°C° 0 mm 5 m/s 728 mmHg 66%
    14:00 +5°C° 0.2 mm 5 m/s 728 mmHg 68%
    15:00 +4°C° 0.2 mm 4 m/s 728 mmHg 71%
    16:00 +4°C° 0.2 mm 4 m/s 728 mmHg 73%
    17:00 +3°C° 0.1 mm 4 m/s 729 mmHg 72%
    18:00 +2°C° 0.1 mm 5 m/s 729 mmHg 71%
    19:00 +1°C° 0.1 mm 5 m/s 729 mmHg 70%
    20:00 +1°C° 0 mm 5 m/s 729 mmHg 70%
    21:00 +1°C° 0 mm 4 m/s 730 mmHg 69%
    22:00 +1°C° 0 mm 4 m/s 730 mmHg 69%
    23:00 +1°C° 0 mm 4 m/s 730 mmHg 69%

    26 Janeiro, Sábado

    Tempo Temperatura Precipitação Vento Pressão Humidade
    00:00 0°C° 0 mm 4 m/s 730 mmHg 69%
    01:00 0°C° 0 mm 4 m/s 730 mmHg 69%
    02:00 0°C° 0 mm 4 m/s 731 mmHg 68%
    03:00 0°C° 0 mm 4 m/s 731 mmHg 68%
    04:00 0°C° 0 mm 4 m/s 731 mmHg 68%
    05:00 0°C° 0 mm 4 m/s 731 mmHg 67%
    06:00 0°C° 0 mm 5 m/s 732 mmHg 67%
    07:00 -1°C° 0 mm 5 m/s 732 mmHg 67%
    08:00 0°C° 0 mm 5 m/s 733 mmHg 65%
    09:00 +1°C° 0 mm 5 m/s 733 mmHg 63%
    10:00 +2°C° 0 mm 5 m/s 733 mmHg 61%
    11:00 +3°C° 0 mm 5 m/s 733 mmHg 60%
    12:00 +4°C° 0 mm 4 m/s 733 mmHg 59%
    13:00 +5°C° 0 mm 4 m/s 733 mmHg 59%
    14:00 +4°C° 0 mm 4 m/s 733 mmHg 61%
    15:00 +4°C° 0 mm 4 m/s 733 mmHg 63%
    16:00 +4°C° 0 mm 3 m/s 734 mmHg 65%
    17:00 +3°C° 0 mm 3 m/s 734 mmHg 67%
    18:00 +2°C° 0 mm 3 m/s 734 mmHg 69%
    19:00 +1°C° 0 mm 3 m/s 735 mmHg 71%
    20:00 +1°C° 0 mm 3 m/s 735 mmHg 71%
    21:00 +1°C° 0 mm 3 m/s 735 mmHg 72%
    22:00 +1°C° 0 mm 3 m/s 735 mmHg 72%
    23:00 +1°C° 0 mm 3 m/s 735 mmHg 72%
    Mostrar mais